sat.trackr.live / text

‹ back to catalog

ONEWEB-0253

NORAD 48971 · 2021-060E

PAYLOAD ACTIVE UNKNOWN

§ Identity

Operator
Country
UK
Launch date
2021-07-01
Launch site
VOSTO
Launch vehicle
Mass (kg)
RCS (m²)

Purposes: comms

External: N2YO · Heavens-Above · Gunter

§ Orbital elements

Epoch: 2026-09-20T03:28:38.629056Z

Period
109.37 min
Inclination
87.9155°
Eccentricity
0.0001877
Mean motion
13.16593614 rev/d
Perigee alt
1,196.3 km
Apogee alt
1,199.2 km
Semi-major
7,575.9 km
B*
2.1671e-4
RAAN
209.9233°
Arg perigee
75.3395°
Mean anomaly
284.7944°
Rev number
25,208

§ Raw data

ONEWEB-02531 48971U 21060E   26263.14489154  .00000096  00000+0  21671-3 0  99972 48971  87.9155 209.9233 0001877  75.3395 284.7944 13.16593614252083

JSON: /api/v1/satellites/48971 · /tle

For live sub-satellite position, see the globe view (requires WebGL).

§ Visibility from observer

Set your observer location to see the next 7 days of passes ≥ 10°. The values pass through the URL so the page stays shareable.

No JS? Fill the form by hand. The geolocation button needs JavaScript.